Gulf Shores - Orange Beach - Perdido Key Weather Center

Moon Phase Calendar



Online Cameras

 


      

Current Conditions in Orange Beach
2/26/2021 5:55:10 AM

63°F
Feels Like 66
Fog
Humidity
100%
Pressure
30.06"
Wind
3.4 mph (SE)
Dew Point
63°F
UV Index
0/10 (Low)
Visibility
0 mi

Hourly Forecast

Date & Time Fri, Feb 26
5:00 AM
Fri, Feb 26
6:00 AM
Fri, Feb 26
7:00 AM
Fri, Feb 26
8:00 AM
Fri, Feb 26
9:00 AM
Fri, Feb 26
10:00 AM
Fri, Feb 26
11:00 AM
Fri, Feb 26
12:00 PM
Fri, Feb 26
1:00 PM
Fri, Feb 26
2:00 PM
Fri, Feb 26
3:00 PM
Fri, Feb 26
4:00 PM
Fri, Feb 26
5:00 PM
Fri, Feb 26
6:00 PM
Fri, Feb 26
7:00 PM
Fri, Feb 26
8:00 PM
Fri, Feb 26
9:00 PM
Fri, Feb 26
10:00 PM
Fri, Feb 26
11:00 PM
Sat, Feb 27
12:00 AM
Sat, Feb 27
1:00 AM
Sat, Feb 27
2:00 AM
Sat, Feb 27
3:00 AM
Sat, Feb 27
4:00 AM
Sat, Feb 27
5:00 AM
Sat, Feb 27
6:00 AM
Sat, Feb 27
7:00 AM
Sat, Feb 27
8:00 AM
Sat, Feb 27
9:00 AM
Sat, Feb 27
10:00 AM
Sat, Feb 27
11:00 AM
Sat, Feb 27
12:00 PM
Sat, Feb 27
1:00 PM
Sat, Feb 27
2:00 PM
Sat, Feb 27
3:00 PM
Sat, Feb 27
4:00 PM
Sat, Feb 27
5:00 PM
Sat, Feb 27
6:00 PM
Sat, Feb 27
7:00 PM
Sat, Feb 27
8:00 PM
Sat, Feb 27
9:00 PM
Sat, Feb 27
10:00 PM
Sat, Feb 27
11:00 PM
Sun, Feb 28
12:00 AM
Sun, Feb 28
1:00 AM
Sun, Feb 28
2:00 AM
Sun, Feb 28
3:00 AM
Sun, Feb 28
4:00 AM
Condition
Clouds

Clouds

Clouds

Clear

Clear

Clear

Rain

Rain

Rain

Clouds

Rain

Rain

Clear

Clear

Clear

Clear

Clear

Clear

Clear

Clear

Clear

Clouds

Clouds

Clouds

Clouds

Clouds

Clouds

Clouds

Clouds

Clouds

Clouds

Clouds

Clouds

Clouds

Clouds

Clouds

Clouds

Clouds

Clouds

Clouds

Clouds

Clouds

Clouds

Clouds

Clouds

Clouds

Clouds

Clouds
Temperature 63°F63°F64°F66°F68°F68°F69°F69°F70°F70°F69°F69°F68°F67°F67°F66°F66°F66°F65°F65°F65°F65°F65°F64°F65°F65°F65°F67°F68°F69°F69°F69°F70°F69°F69°F68°F68°F67°F67°F67°F66°F67°F67°F67°F67°F66°F66°F67°F
Feels Like 66°F64°F64°F66°F67°F69°F68°F68°F68°F68°F67°F66°F66°F65°F64°F64°F64°F64°F64°F64°F64°F64°F64°F65°F65°F65°F66°F68°F68°F69°F68°F67°F67°F67°F68°F67°F67°F66°F65°F65°F65°F65°F64°F64°F64°F65°F66°F66°F
Cloudiness 90%47%21%8%2%6%10%16%30%18%13%10%8%7%0%1%4%3%3%5%8%16%19%15%13%16%26%15%28%44%54%62%100%100%100%97%97%94%100%100%100%100%100%100%100%97%98%98%
Visibility 6 mi6 mi6 mi6 mi6 mi6 mi6 mi6 mi6 mi6 mi6 mi6 mi6 mi6 mi6 mi6 mi6 mi6 mi6 mi6 mi6 mi6 mi6 mi6 mi6 mi6 mi6 mi6 mi6 mi6 mi6 mi6 mi6 mi6 mi6 mi6 mi6 mi6 mi6 mi6 mi6 mi6 mi6 mi6 mi6 mi6 mi6 mi6 mi
Precipitation 0%0%0%0%0%0%23%36%61%63%55%51%47%39%0%0%0%0%0%0%0%0%0%0%0%0%0%0%0%0%0%0%22%19%18%10%6%2%0%0%0%0%0%2%19%24%26%35%
Humidity 100%96%94%89%88%88%87%87%85%85%86%87%89%90%89%89%89%90%91%92%92%93%94%95%95%94%94%91%88%86%86%86%84%85%87%88%91%93%93%94%95%95%95%95%95%96%96%96%
Dew Point 63°F62°F62°F63°F64°F65°F65°F65°F65°F65°F65°F65°F65°F64°F64°F63°F63°F63°F63°F63°F63°F63°F63°F63°F63°F63°F64°F64°F65°F65°F65°F65°F65°F65°F65°F65°F65°F65°F65°F65°F65°F65°F66°F65°F65°F65°F65°F66°F
Pressure 30.06"30.06"30.06"30.09"30.12"30.12"30.12"30.12"30.06"30.06"30.03"30.03"30.03"30.06"30.06"30.06"30.06"30.09"30.09"30.09"30.09"30.06"30.06"30.06"30.06"30.09"30.09"30.12"30.12"30.12"30.12"30.12"30.12"30.09"30.09"30.06"30.06"30.09"30.09"30.12"30.12"30.12"30.09"30.09"30.09"30.09"30.09"30.09"
Wind Speed 4.4 mph5.5 mph7.5 mph8.5 mph9.2 mph9 mph11 mph12 mph12.4 mph13 mph12.8 mph13 mph12.5 mph11.5 mph12 mph12 mph11.7 mph11.3 mph10.4 mph9.3 mph9.4 mph8.9 mph8.6 mph7.5 mph7.5 mph6.8 mph6.9 mph7.5 mph9 mph10 mph11.6 mph13 mph13.3 mph12.7 mph11.6 mph11.3 mph11.1 mph11.1 mph11.5 mph11.6 mph12.4 mph13.4 mph14.2 mph13.6 mph13.7 mph12 mph11 mph10.8 mph
Wind
Direction
197°
SSW
186°
S
181°
S
186°
S
184°
S
181°
S
181°
S
186°
S
194°
SSW
194°
SSW
191°
S
183°
S
178°
S
176°
S
172°
S
172°
S
170°
S
172°
S
175°
S
179°
S
177°
S
177°
S
172°
S
175°
S
168°
SSE
161°
SSE
148°
SSE
142°
SE
143°
SE
140°
SE
146°
SE
150°
SSE
149°
SSE
150°
SSE
145°
SE
138°
SE
139°
SE
142°
SE
144°
SE
140°
SE
139°
SE
143°
SE
149°
SSE
153°
SSE
158°
SSE
163°
SSE
167°
SSE
171°
S

Daily Forecast

Date High Low Precip. Humidity
Today
Feb 26

Rain
70 °F
63 °F
63%
87%
Saturday
Feb 27

Clouds
70 °F
64 °F
22%
86%
Sunday
Feb 28

Rain
70 °F
66 °F
26%
82%
Monday
Mar 1

Rain
71 °F
59 °F
100%
68%
Tuesday
Mar 2

Rain
58 °F
54 °F
100%
63%
Wednesday
Mar 3

Rain
62 °F
58 °F
100%
94%
Thursday
Mar 4

Rain
65 °F
63 °F
60%
95%
Friday
Mar 5

Rain
69 °F
64 °F
39%
81%
Saturday
Mar 6

Rain
67 °F
62 °F
82%
68%
Sunday
Mar 7

Clear
64 °F
55 °F
0%
66%
Monday
Mar 8

Clouds
66 °F
59 °F
0%
72%
Tuesday
Mar 9

Clear
67 °F
57 °F
0%
58%
Wednesday
Mar 10

Clear
65 °F
56 °F
0%
67%
Thursday
Mar 11

Rain
65 °F
50 °F
78%
87%
Friday
Mar 12

Clear
59 °F
44 °F
0%
35%
Saturday
Mar 13

Clear
63 °F
51 °F
0%
53%


Temperature 8-14 Day Outlook



Precipitation 8-14 Day Outlook




Quick Links
Gulf Shores - Orange Beach - Perdido Key News
Gulf Shores - Orange Beach - Perdido Key Photos
Gulf Shores - Orange Beach - Perdido Key Videos




About Us
Contact Us
Site Map
Search Site
Advertise With Us
   
GulfShores.USGulf.info
THE GULF SHORES - ORANGE BEACH - PERDIDO KEY WEBSITE

Copyright 2021, Coastal Town
Privacy    |    Legal